Regional Weather Roundup
Issued by NWS

Home | Current Version | Previous Version | Graphics & Text | Print | Product List | Glossary On
Versions: 1 2 3 4 5 6 7 8 9 10 11 12 13 14 15 16 17 18 19 20 21 22 23 24 25 26 27 28 29 30 31 32 33 34 35 36 37 38 39 40 41 42 43 44 45 46 47 48 49
000
ASUS45 KPSR 220610
RWRAZ

ARIZONA HOURLY REGIONAL WEATHER ROUNDUP
NATIONAL WEATHER SERVICE PHOENIX AZ
1100 PM MST SUN MAY 21 2017

NOTE: FAIR INDICATES FEW OR NO CLOUDS BELOW 12,000 FEET WITH NO
SIGNIFICANT WEATHER AND/OR OBSTRUCTIONS TO VISIBILITY.

AZZ001>003-036-220700-
NORTHWEST ARIZONA

CITY           SKY/WX    TMP DP  RH WIND       PRES   REMARKS
BULLHEAD CITY  PTCLDY    88  25  10 CALM      29.81S
KINGMAN        PTCLDY    66  24  20 MISG      30.02R
6HR MIN TEMP:  66; 6HR MAX TEMP:  91;

$$

AZZ004>008-015-016-018-220700-
NORTH CENTRAL ARIZONA

CITY           SKY/WX    TMP DP  RH WIND       PRES   REMARKS
GRAND CANYON   PTCLDY    46  32  58 CALM      30.26R
6HR MIN TEMP:  45; 6HR MAX TEMP:  72;

WILLIAMS       CLEAR     48  32  53 SE6       30.26R
PRESCOTT       CLEAR     64  25  22 W3        30.14R
6HR MIN TEMP:  61; 6HR MAX TEMP:  83;

FLAGSTAFF      PTCLDY    47  27  45 CALM      30.26R
6HR MIN TEMP:  46; 6HR MAX TEMP:  72;

PAYSON         CLEAR     64  21  19 N3        30.16R
PAGE           CLEAR     66  37  34 W3        30.13R
6HR MIN TEMP:  66; 6HR MAX TEMP:  81;

$$

AZZ009>014-017-220700-
NORTHEAST ARIZONA

CITY           SKY/WX    TMP DP  RH WIND       PRES   REMARKS
WINSLOW        PTCLDY    58  23  26 W8        30.14R
6HR MIN TEMP:  54; 6HR MAX TEMP:  83;

SAINT JOHNS    CLEAR     57  22  25 S8        30.15S
6HR MIN TEMP:  54; 6HR MAX TEMP:  77;

WINDOW ROCK    MOCLDY    56  27  32 NE3       30.24R
6HR MIN TEMP:  47; 6HR MAX TEMP:  73;

SHOW LOW       CLEAR     50  16  25 CALM      30.22R
$$

AZZ540-542>544-546-548-220700-
GREATER PHOENIX AREA

CITY           SKY/WX    TMP DP  RH WIND       PRES   REMARKS
PHOENIX        CLEAR     91  26   9 NW5       29.82R
6HR MIN TEMP:  89; 6HR MAX TEMP:  99;

BUCKEYE        CLEAR     77  21  12 N6        29.84S
LUKE AFB       CLEAR     80  36  20 W6        29.83R
6HR MIN TEMP:  80; 6HR MAX TEMP:  99;

DEER VALLEY    CLEAR     76  25  15 CALM      29.85R
6HR MIN TEMP:  76; 6HR MAX TEMP:  98;

SCOTTSDALE     CLEAR     84  30  14 CALM      29.87R
6HR MIN TEMP:  84; 6HR MAX TEMP:  98;

MESA-GATEWAY   PTCLDY    77  30  18 E7        29.86R
$$

AZZ539-553-220700-
SOUTHWEST MARICOPA COUNTY AND PINAL COUNTY

CITY           SKY/WX    TMP DP  RH WIND       PRES   REMARKS
CASA GRANDE    CLEAR     78  23  13 S5        29.87R
6HR MIN TEMP:  77; 6HR MAX TEMP:  98;

GILA BEND      FAIR      81  17   9 SW8       29.82R
6HR MIN TEMP:  81; 6HR MAX TEMP: 100;

$$

AZZ503-504-507>509-220700-
SOUTHEAST ARIZONA

CITY           SKY/WX    TMP DP  RH WIND       PRES   REMARKS
TUCSON         CLEAR     78  18  10 W7        29.98R
6HR MIN TEMP:  78; 6HR MAX TEMP:  97;

DAVIS-MONTHAN  CLEAR     78  18  10 W7        29.97R
6HR MIN TEMP:  75; 6HR MAX TEMP:  95;

NOGALES        CLEAR     67  21  17 E5        30.06R
6HR MIN TEMP:  66; 6HR MAX TEMP:  93;

SIERRA VISTA   CLEAR     70  11  10 W13       30.10S
6HR MIN TEMP:  68; 6HR MAX TEMP:  88;

DOUGLAS        CLEAR     63  14  15 NW10      30.05R
6HR MIN TEMP:  63; 6HR MAX TEMP:  92;

SAFFORD        CLEAR     74  13   9 N9        29.96R
6HR MIN TEMP:  74; 6HR MAX TEMP:  95; 6HR PCP: TRACE;

$$

AZZ532-220700-
SOUTHWEST ARIZONA

CITY           SKY/WX    TMP DP  RH WIND       PRES   REMARKS
YUMA           CLEAR     81  39  22 S5        29.82R
6HR MIN TEMP:  81; 6HR MAX TEMP: 102;

$$

CAZ041-043-047-048-061-525>527-560>570-220700-
SOUTHERN CALIFORNIA

CITY           SKY/WX    TMP DP  RH WIND       PRES   REMARKS
DOWNTOWN L.A.  CLEAR     64  57  78 CALM      29.95R
6HR MIN TEMP:  64; 6HR MAX TEMP:  79;

L.A. AIRPORT   PTCLDY    62  60  93 SW5       29.95R
6HR MIN TEMP:  62; 6HR MAX TEMP:  70;

SAN DIEGO      MOCLDY    65  61  87 VRB5      29.98R
6HR MIN TEMP:  65; 6HR MAX TEMP:  74;

BURBANK        CLEAR     69  55  60 SE6       29.94R
6HR MIN TEMP:  69; 6HR MAX TEMP:  89;

ONTARIO        PTCLDY    71  53  52 W8        29.96R
6HR MIN TEMP:  70; 6HR MAX TEMP:  93;

RIVERSIDE      CLEAR     72  47  40 S3        29.96R
6HR MIN TEMP:  71; 6HR MAX TEMP:  91;

PALM SPRINGS   CLEAR     91  33  12 NW6       29.84R
6HR MIN TEMP:  91; 6HR MAX TEMP: 106;

EL CENTRO NAS  CLEAR     84  37  18 W14       29.82R
6HR MIN TEMP:  84; 6HR MAX TEMP: 103;

IMPERIAL       CLEAR     79  45  29 W8        29.80R
6HR MIN TEMP:  79; 6HR MAX TEMP: 104;

BLYTHE         CLEAR     88  31  13 SW8       29.80S
6HR MIN TEMP:  85; 6HR MAX TEMP: 102;

NEEDLES        CLEAR     90  19   7 W10       29.83R
6HR MIN TEMP:  90; 6HR MAX TEMP: 104;

$$

NVZ020-UTZ003-220700-
SOUTHERN NEVADA-UTAH

CITY           SKY/WX    TMP DP  RH WIND       PRES   REMARKS
LAS VEGAS      MOCLDY    85  23  10 N8        29.91R
6HR MIN TEMP:  85; 6HR MAX TEMP:  97;

SALT LAKE CITY PTCLDY    57  46  66 SE5       30.23S
6HR MIN TEMP:  57; 6HR MAX TEMP:  66;

$$

NMZ009-TXZ055-220700-
NEW MEXICO-WEST TEXAS

CITY           SKY/WX    TMP DP  RH WIND       PRES   REMARKS
ALBUQUERQUE    PTCLDY    67  16  14 NW9       30.12S
6HR MIN TEMP:  67; 6HR MAX TEMP:  80;

EL PASO        CLEAR     74  48  39 S8        30.02R
6HR MIN TEMP:  74; 6HR MAX TEMP:  90;

$$


........................KEY........................
SKY/WX - SKY CONDITION/WEATHER
TMP    - TEMPERATURE IN FAHRENHEIT
DP     - DEW POINT IN FAHRENHEIT
RH     - RELATIVE HUMIDITY IN PERCENT
WIND   - DIRECTION AND SPEED IN MILES PER HOUR (MPH)
VRB    - VARIABLE WIND DIRECTION
PRES   - MEAN SEA LEVEL PRESSURE IN INCHES OF MERCURY
         F - FALLING PRESSURE   R - RISING PRESSURE
         S - STEADY PRESSURE
VSB    - VISIBILITY IN MILES
HX     - HEAT INDEX IN FAHRENHEIT
WCI    - WIND CHILL INDEX IN FAHRENHEIT
TC     - TEMPERATURE IN CELSIUS WHICH IS ALSO KNOWN AS
         TEMPERATURE IN CENTIGRADE
AFB    - AIR FORCE BASE
         LUKE AFB IS LUKE AIR FORCE BASE
         DAVIS-MONTHAN IS DAVIS-MONTHAN AIR FORCE BASE
NAS    - NAVAL AIR STATION
         EL CENTRO NAS IS EL CENTRO NAVAL AIR STATION
N/A    - NOT AVAILABLE





USA.gov is the U.S. government's official web portal to all federal, state and local government web resources and services.